TITAN 3C TRANSTAGE R/B, 2868

Orbit data source: Space-Track

TITAN 3C TRANSTAGE R/B, 2868 is space debris in GEO originally from a launch on Sat, 01 Jul 1967 UTC launched from the Air Force Eastern Test Range (AFETR). Debris objects in space refer to the collection of defunct objects orbiting the Earth. Examples of debris include non-operational satellites, rocket bodies, and fragments generated from explosions, collisions, or faulty payload assembly.

Loading next visibility...
Identifier
2868, 1967-066G
Orbit
GEO
Country
Flag of USUS
Related business
Manufacturer
Martin Marietta
Mission
Spacecraft
Bus & Motor
TRANSTAGE, Unknown motor
Mass
2,176 kg wet, 2,050 kg dry
Launch date (UTC)
1967-07-01 (59 years ago)
Launch vehicle
Unknown
Launch site
Air Force Eastern Test Range (AFETR)
Object type
Payload
Rocket body
Debris
Shape & HBR
Unknown
Radar Cross Section
Large (>1 m²)

Expand to show TLE details & history
Last TLE update: 10 hours ago

TLE from 10 hours ago
0 TITAN 3C TRANSTAGE R/B
1 02868U 67066G   26140.56212184 -.00000075  00000-0  00000-0 0  9994
2 02868   2.2918  98.6206 0083307 174.5052  10.2913  1.08907760128032
Epoch: 2026-05-20T13:29Z
TLE epoch observation values (Epoch: 2026-05-20T13:29:27.326Z)
Latitude
-0.20936°
Longitude
-156.9895°
Altitude
33,199.12 km
Speed
3.187 km/s
True Right ascension
18h 54m 22s
True Declination
0° 12' 33"
Sunlit
Object was in daylight at epoch
Visualization orbit readout
Latitude
Unknown
Longitude
Unknown
Altitude
Unknown
Speed
Unknown
Apparent Right ascension
Unknown
Apparent Declination
Unknown
Sunlit
N/A
Visualization observer readout
Local Sidereal Time
08:15:54
Azimuth
Unknown
Elevation
Unknown
Doppler factor
Unknown
Orbital elements
Apogee altitude
33,860.618 km
Perigee altitude
33,195.723 km
Semi-major axis
39,906.307 km
Eccentricity
0.00833
Inclination
2.2918°
RAAN
98.6206°
Arg. of periapsis
174.5052°
True anomaly
10.46361°
Mean anomaly
10.2913°
Eccentric anomaly
10.37728°
Mean motion
0.27226 °/min
Orbital period
1,322.27 mins
BSTAR
0
Loading maneuver chart data...
Computing Atmospheric mass density...
Loading historical data...
Loading historical data...
Loading historical data...
Loading historical data...
Loading historical data...
Loading historical data...
Loading historical data...

Documentation

Showing up to 5 results
|